Time,TemperatureF,DewpointF,PressureIn,WindDirection,WindDirectionDegrees,WindSpeedMPH,WindSpeedGustMPH,Humidity,HourlyPrecipIn,Conditions,Clouds,dailyrainin,SoftwareType,DateUTC
2013-03-11 00:03:00,66.0,34.0,29.82,SSE,165,4.0,-999.0,31,-99.99,,,-99.99,,2013-03-11 04:03:00,
2013-03-11 00:12:00,66.0,34.0,29.82,SSE,165,4.0,-999.0,31,-99.99,,,-99.99,,2013-03-11 04:12:00,
2013-03-11 00:22:00,66.0,34.0,29.82,South,177,4.0,-999.0,30,-99.99,,,-99.99,,2013-03-11 04:22:00,
2013-03-11 00:33:00,66.0,33.0,29.82,SSW,213,5.0,-999.0,29,-99.99,,,-99.99,,2013-03-11 04:33:00,
2013-03-11 00:43:00,66.0,33.0,29.82,SSW,213,5.0,-999.0,29,-99.99,,,-99.99,,2013-03-11 04:43:00,
2013-03-11 00:53:00,66.0,33.0,29.82,SSW,199,7.0,-999.0,29,-99.99,,,-99.99,,2013-03-11 04:53:00,
2013-03-11 01:03:00,66.0,33.0,29.82,SSE,161,5.0,-999.0,29,-99.99,,,-99.99,,2013-03-11 05:03:00,
2013-03-11 01:12:00,66.0,33.0,29.82,SSE,161,5.0,-999.0,29,-99.99,,,-99.99,,2013-03-11 05:12:00,
2013-03-11 01:22:00,66.0,33.0,29.81,South,190,5.0,-999.0,29,-99.99,,,-99.99,,2013-03-11 05:22:00,
2013-03-11 01:32:00,65.0,33.0,29.81,South,190,5.0,-999.0,30,-99.99,,,-99.99,,2013-03-11 05:32:00,
2013-03-11 01:43:00,65.0,33.0,29.81,South,190,5.0,-999.0,30,-99.99,,,-99.99,,2013-03-11 05:43:00,
2013-03-11 01:52:00,65.0,33.0,29.80,SSW,207,6.0,-999.0,30,-99.99,,,-99.99,,2013-03-11 05:52:00,
2013-03-11 02:02:00,65.0,33.0,29.80,South,178,6.0,-999.0,30,-99.99,,,-99.99,,2013-03-11 06:02:00,
2013-03-11 02:12:00,65.0,33.0,29.80,South,178,6.0,-999.0,30,-99.99,,,-99.99,,2013-03-11 06:12:00,
2013-03-11 02:22:00,64.0,32.0,29.80,SE,133,5.0,-999.0,30,-99.99,,,-99.99,,2013-03-11 06:22:00,
2013-03-11 02:33:00,63.0,32.0,29.79,SSE,147,4.0,-999.0,31,-99.99,,,-99.99,,2013-03-11 06:33:00,
2013-03-11 02:42:00,63.0,32.0,29.79,SSE,147,4.0,-999.0,31,-99.99,,,-99.99,,2013-03-11 06:42:00,
2013-03-11 02:52:00,63.0,32.0,29.78,South,172,6.0,-999.0,31,-99.99,,,-99.99,,2013-03-11 06:52:00,
2013-03-11 03:03:00,63.0,33.0,29.80,SSW,194,5.0,-999.0,32,-99.99,,,-99.99,,2013-03-11 07:03:00,
2013-03-11 03:12:00,63.0,33.0,29.80,SSW,194,5.0,-999.0,32,-99.99,,,-99.99,,2013-03-11 07:12:00,
2013-03-11 03:22:00,63.0,33.0,29.78,WSW,252,5.0,-999.0,32,-99.99,,,-99.99,,2013-03-11 07:22:00,
2013-03-11 03:32:00,62.0,33.0,29.78,SSE,167,4.0,-999.0,33,-99.99,,,-99.99,,2013-03-11 07:32:00,
2013-03-11 03:42:00,62.0,33.0,29.78,SSE,167,4.0,-999.0,33,-99.99,,,-99.99,,2013-03-11 07:42:00,
2013-03-11 03:52:00,62.0,33.0,29.78,SSE,166,5.0,-999.0,33,-99.99,,,-99.99,,2013-03-11 07:52:00,
2013-03-11 04:02:00,62.0,33.0,29.77,South,184,6.0,-999.0,34,-99.99,,,-99.99,,2013-03-11 08:02:00,
2013-03-11 04:12:00,62.0,33.0,29.77,South,184,6.0,-999.0,34,-99.99,,,-99.99,,2013-03-11 08:12:00,
2013-03-11 04:22:00,61.0,33.0,29.75,SSE,161,4.0,-999.0,35,-99.99,,,-99.99,,2013-03-11 08:22:00,
2013-03-11 04:33:00,61.0,34.0,29.75,SSW,204,5.0,-999.0,36,-99.99,,,-99.99,,2013-03-11 08:33:00,
2013-03-11 04:42:00,61.0,34.0,29.75,SSW,204,5.0,-999.0,36,-99.99,,,-99.99,,2013-03-11 08:42:00,
2013-03-11 04:52:00,61.0,35.0,29.75,South,190,3.0,-999.0,37,-99.99,,,-99.99,,2013-03-11 08:52:00,
2013-03-11 05:02:00,61.0,35.0,29.74,South,174,6.0,-999.0,37,-99.99,,,-99.99,,2013-03-11 09:02:00,
2013-03-11 05:12:00,61.0,35.0,29.74,South,174,6.0,-999.0,37,-99.99,,,-99.99,,2013-03-11 09:12:00,
2013-03-11 05:23:00,61.0,36.0,29.74,South,180,3.0,-999.0,39,-99.99,,,-99.99,,2013-03-11 09:23:00,
2013-03-11 05:32:00,61.0,36.0,29.74,SSE,161,4.0,-999.0,40,-99.99,,,-99.99,,2013-03-11 09:32:00,
2013-03-11 05:42:00,61.0,36.0,29.74,SSE,161,4.0,-999.0,40,-99.99,,,-99.99,,2013-03-11 09:42:00,
2013-03-11 05:52:00,61.0,37.0,29.74,South,172,3.0,-999.0,41,-99.99,,,-99.99,,2013-03-11 09:52:00,
2013-03-11 06:02:00,61.0,38.0,29.74,South,179,2.0,-999.0,43,-99.99,,,-99.99,,2013-03-11 10:02:00,
2013-03-11 06:12:00,61.0,38.0,29.74,South,179,2.0,-999.0,43,-99.99,,,-99.99,,2013-03-11 10:12:00,
2013-03-11 06:22:00,61.0,39.0,29.74,South,188,3.0,-999.0,44,-99.99,,,-99.99,,2013-03-11 10:22:00,
2013-03-11 06:32:00,61.0,40.0,29.74,SSW,204,2.0,-999.0,45,-99.99,,,-99.99,,2013-03-11 10:32:00,
2013-03-11 06:42:00,61.0,40.0,29.74,SSW,204,2.0,-999.0,45,-99.99,,,-99.99,,2013-03-11 10:42:00,
2013-03-11 06:52:00,61.0,41.0,29.74,SSW,194,2.0,-999.0,47,-99.99,,,-99.99,,2013-03-11 10:52:00,
2013-03-11 07:02:00,61.0,41.0,29.74,SSE,161,3.0,-999.0,48,-99.99,,,-99.99,,2013-03-11 11:02:00,
2013-03-11 07:12:00,61.0,41.0,29.74,SSE,161,3.0,-999.0,48,-99.99,,,-99.99,,2013-03-11 11:12:00,
2013-03-11 07:22:00,61.0,42.0,29.73,SE,132,2.0,-999.0,49,-99.99,,,-99.99,,2013-03-11 11:22:00,
2013-03-11 07:33:00,61.0,43.0,29.73,South,173,4.0,-999.0,51,-99.99,,,-99.99,,2013-03-11 11:33:00,
2013-03-11 07:42:00,61.0,43.0,29.73,South,173,4.0,-999.0,51,-99.99,,,-99.99,,2013-03-11 11:42:00,
2013-03-11 07:52:00,62.0,44.0,29.74,SSW,195,4.0,-999.0,52,-99.99,,,-99.99,,2013-03-11 11:52:00,
2013-03-11 08:02:00,62.0,45.0,29.76,SSW,206,4.0,-999.0,53,-99.99,,,-99.99,,2013-03-11 12:02:00,
2013-03-11 08:12:00,62.0,45.0,29.76,SSW,206,4.0,-999.0,53,-99.99,,,-99.99,,2013-03-11 12:12:00,
2013-03-11 08:22:00,62.0,45.0,29.76,South,180,5.0,-999.0,53,-99.99,,,-99.99,,2013-03-11 12:22:00,
2013-03-11 08:33:00,62.0,46.0,29.76,SSW,209,4.0,-999.0,55,-99.99,,,-99.99,,2013-03-11 12:33:00,
2013-03-11 08:43:00,62.0,46.0,29.76,SSW,209,4.0,-999.0,55,-99.99,,,-99.99,,2013-03-11 12:43:00,
2013-03-11 08:52:00,62.0,47.0,29.75,SSW,200,7.0,-999.0,57,-99.99,,,-99.99,,2013-03-11 12:52:00,
2013-03-11 09:03:00,62.0,47.0,29.75,SSW,200,3.0,-999.0,58,-99.99,,,-99.99,,2013-03-11 13:03:00,
2013-03-11 09:12:00,62.0,47.0,29.75,SSW,200,3.0,-999.0,58,-99.99,,,-99.99,,2013-03-11 13:12:00,
2013-03-11 09:22:00,62.0,47.0,29.74,SSW,205,5.0,-999.0,59,-99.99,,,-99.99,,2013-03-11 13:22:00,
2013-03-11 09:33:00,62.0,47.0,29.74,SSE,165,4.0,-999.0,59,-99.99,,,-99.99,,2013-03-11 13:33:00,
2013-03-11 09:42:00,62.0,47.0,29.74,SSE,165,4.0,-999.0,59,-99.99,,,-99.99,,2013-03-11 13:42:00,
2013-03-11 09:52:00,62.0,47.0,29.73,South,186,4.0,-999.0,59,-99.99,,,-99.99,,2013-03-11 13:52:00,
2013-03-11 10:02:00,62.0,48.0,29.71,South,178,3.0,-999.0,61,-99.99,,,-99.99,,2013-03-11 14:02:00,
2013-03-11 10:12:00,62.0,48.0,29.71,South,178,3.0,-999.0,61,-99.99,,,-99.99,,2013-03-11 14:12:00,
2013-03-11 10:22:00,61.0,49.0,29.71,South,186,3.0,-999.0,64,-99.99,,,-99.99,,2013-03-11 14:22:00,
2013-03-11 10:33:00,62.0,49.0,29.69,SW,214,5.0,-999.0,62,-99.99,,,-99.99,,2013-03-11 14:33:00,
2013-03-11 10:42:00,62.0,49.0,29.69,SW,214,5.0,-999.0,62,-99.99,,,-99.99,,2013-03-11 14:42:00,
2013-03-11 10:52:00,62.0,48.0,29.71,SSW,201,6.0,-999.0,61,-99.99,,,-99.99,,2013-03-11 14:52:00,
2013-03-11 11:03:00,62.0,51.0,29.73,WSW,245,7.0,-999.0,66,-99.99,,,-99.99,,2013-03-11 15:03:00,
2013-03-11 11:13:00,62.0,51.0,29.73,WSW,245,7.0,-999.0,66,-99.99,,,-99.99,,2013-03-11 15:13:00,
2013-03-11 11:22:00,59.0,51.0,29.74,SW,236,5.0,-999.0,76,-99.99,,,-99.99,,2013-03-11 15:22:00,
2013-03-11 11:32:00,58.0,52.0,29.74,SSW,208,5.0,-999.0,81,-99.99,,,-99.99,,2013-03-11 15:32:00,
2013-03-11 11:42:00,58.0,52.0,29.74,SSW,208,5.0,-999.0,81,-99.99,,,-99.99,,2013-03-11 15:42:00,
2013-03-11 11:53:00,57.0,52.0,29.74,SW,223,4.0,-999.0,84,-99.99,,,-99.99,,2013-03-11 15:53:00,
2013-03-11 12:03:00,56.0,52.0,29.73,SW,227,5.0,-999.0,86,-99.99,,,-99.99,,2013-03-11 16:03:00,
2013-03-11 12:13:00,56.0,52.0,29.73,SW,227,5.0,-999.0,86,-99.99,,,-99.99,,2013-03-11 16:13:00,
2013-03-11 12:22:00,56.0,52.0,29.72,SW,218,1.0,-999.0,87,-99.99,,,-99.99,,2013-03-11 16:22:00,
2013-03-11 12:32:00,56.0,52.0,29.72,SSW,199,4.0,-999.0,88,-99.99,,,-99.99,,2013-03-11 16:32:00,
2013-03-11 12:43:00,56.0,52.0,29.72,SSW,199,4.0,-999.0,88,-99.99,,,-99.99,,2013-03-11 16:43:00,
2013-03-11 12:52:00,56.0,53.0,29.71,SW,228,2.0,-999.0,89,-99.99,,,-99.99,,2013-03-11 16:52:00,
2013-03-11 13:03:00,56.0,53.0,29.70,South,180,5.0,-999.0,90,-99.99,,,-99.99,,2013-03-11 17:03:00,
2013-03-11 13:15:00,56.0,53.0,29.70,South,180,5.0,-999.0,90,-99.99,,,-99.99,,2013-03-11 17:15:00,
2013-03-11 13:27:00,56.0,53.0,29.70,SSW,193,7.0,-999.0,90,-99.99,,,-99.99,,2013-03-11 17:27:00,
2013-03-11 13:37:00,57.0,53.0,29.67,South,190,8.0,-999.0,88,-99.99,,,-99.99,,2013-03-11 17:37:00,
2013-03-11 13:52:00,57.0,53.0,29.66,South,175,7.0,-999.0,85,-99.99,,,-99.99,,2013-03-11 17:52:00,
2013-03-11 14:02:00,57.0,53.0,29.66,South,175,7.0,-999.0,85,-99.99,,,-99.99,,2013-03-11 18:02:00,
2013-03-11 14:12:00,57.0,53.0,29.66,South,175,7.0,-999.0,85,-99.99,,,-99.99,,2013-03-11 18:12:00,
2013-03-11 14:23:00,58.0,52.0,29.66,SSW,211,12.0,-999.0,80,-99.99,,,-99.99,,2013-03-11 18:23:00,
2013-03-11 14:33:00,58.0,52.0,29.65,WSW,252,12.0,-999.0,81,-99.99,,,-99.99,,2013-03-11 18:33:00,
2013-03-11 14:42:00,58.0,52.0,29.65,WSW,252,12.0,-999.0,81,-99.99,,,-99.99,,2013-03-11 18:42:00,
2013-03-11 14:52:00,58.0,53.0,29.64,South,171,8.0,-999.0,82,-99.99,,,-99.99,,2013-03-11 18:52:00,
2013-03-11 15:02:00,59.0,53.0,29.64,SSW,207,12.0,-999.0,81,-99.99,,,-99.99,,2013-03-11 19:02:00,
2013-03-11 15:12:00,59.0,53.0,29.64,SSW,207,12.0,-999.0,81,-99.99,,,-99.99,,2013-03-11 19:12:00,
2013-03-11 15:23:00,59.0,54.0,29.64,SW,227,10.0,-999.0,82,-99.99,,,-99.99,,2013-03-11 19:23:00,
2013-03-11 15:33:00,58.0,54.0,29.64,South,171,8.0,-999.0,85,-99.99,,,-99.99,,2013-03-11 19:33:00,
2013-03-11 15:42:00,58.0,54.0,29.64,South,171,8.0,-999.0,85,-99.99,,,-99.99,,2013-03-11 19:42:00,
2013-03-11 15:52:00,58.0,54.0,29.62,SW,225,8.0,-999.0,85,-99.99,,,-99.99,,2013-03-11 19:52:00,
2013-03-11 16:02:00,58.0,53.0,29.61,SSW,196,6.0,-999.0,84,-99.99,,,-99.99,,2013-03-11 20:02:00,
2013-03-11 16:12:00,58.0,53.0,29.61,SSW,196,6.0,-999.0,84,-99.99,,,-99.99,,2013-03-11 20:12:00,
2013-03-11 16:22:00,58.0,53.0,29.60,SW,215,7.0,-999.0,84,-99.99,,,-99.99,,2013-03-11 20:22:00,
2013-03-11 16:32:00,58.0,53.0,29.61,SSW,211,6.0,-999.0,84,-99.99,,,-99.99,,2013-03-11 20:32:00,
2013-03-11 16:43:00,58.0,53.0,29.61,SSW,211,6.0,-999.0,84,-99.99,,,-99.99,,2013-03-11 20:43:00,
2013-03-11 16:52:00,57.0,53.0,29.61,SW,222,6.0,-999.0,85,-99.99,,,-99.99,,2013-03-11 20:52:00,
2013-03-11 17:03:00,57.0,53.0,29.62,WSW,239,6.0,-999.0,85,-99.99,,,-99.99,,2013-03-11 21:03:00,
2013-03-11 17:13:00,57.0,53.0,29.62,WSW,239,6.0,-999.0,85,-99.99,,,-99.99,,2013-03-11 21:13:00,
2013-03-11 17:22:00,51.0,47.0,29.66,WNW,286,10.0,-999.0,87,-99.99,,,-99.99,,2013-03-11 21:22:00,
2013-03-11 17:33:00,50.0,47.0,29.67,West,263,9.0,-999.0,89,-99.99,,,-99.99,,2013-03-11 21:33:00,
2013-03-11 17:44:00,50.0,47.0,29.67,West,263,9.0,-999.0,89,-99.99,,,-99.99,,2013-03-11 21:44:00,
2013-03-11 17:52:00,49.0,46.0,29.67,West,268,7.0,-999.0,90,-99.99,,,-99.99,,2013-03-11 21:52:00,
2013-03-11 18:03:00,49.0,46.0,29.67,West,261,6.0,-999.0,90,-99.99,,,-99.99,,2013-03-11 22:03:00,
2013-03-11 18:12:00,49.0,46.0,29.67,West,261,6.0,-999.0,90,-99.99,,,-99.99,,2013-03-11 22:12:00,
2013-03-11 18:22:00,49.0,46.0,29.68,West,268,6.0,-999.0,90,-99.99,,,-99.99,,2013-03-11 22:22:00,
2013-03-11 18:32:00,49.0,46.0,29.68,West,273,8.0,-999.0,88,-99.99,,,-99.99,,2013-03-11 22:32:00,
2013-03-11 18:43:00,49.0,46.0,29.68,West,273,8.0,-999.0,88,-99.99,,,-99.99,,2013-03-11 22:43:00,
2013-03-11 18:52:00,48.0,45.0,29.70,WNW,282,9.0,-999.0,88,-99.99,,,-99.99,,2013-03-11 22:52:00,
2013-03-11 19:03:00,47.0,44.0,29.72,WNW,288,6.0,-999.0,90,-99.99,,,-99.99,,2013-03-11 23:03:00,
2013-03-11 19:12:00,47.0,44.0,29.72,WNW,288,6.0,-999.0,90,-99.99,,,-99.99,,2013-03-11 23:12:00,
2013-03-11 19:22:00,47.0,44.0,29.72,West,276,6.0,-999.0,90,-99.99,,,-99.99,,2013-03-11 23:22:00,
2013-03-11 19:32:00,47.0,44.0,29.73,West,281,8.0,-999.0,89,-99.99,,,-99.99,,2013-03-11 23:32:00,
2013-03-11 19:43:00,47.0,44.0,29.73,West,281,8.0,-999.0,89,-99.99,,,-99.99,,2013-03-11 23:43:00,
2013-03-11 20:02:00,47.0,43.0,29.75,WNW,292,7.0,-999.0,87,-99.99,,,-99.99,,2013-03-12 00:02:00,
2013-03-11 20:12:00,47.0,43.0,29.75,WNW,292,7.0,-999.0,87,-99.99,,,-99.99,,2013-03-12 00:12:00,
2013-03-11 20:23:00,47.0,43.0,29.75,WNW,302,9.0,-999.0,85,-99.99,,,-99.99,,2013-03-12 00:23:00,
2013-03-11 20:33:00,46.0,41.0,29.77,West,271,7.0,-999.0,84,-99.99,,,-99.99,,2013-03-12 00:33:00,
2013-03-11 20:42:00,46.0,41.0,29.77,West,271,7.0,-999.0,84,-99.99,,,-99.99,,2013-03-12 00:42:00,
2013-03-11 20:53:00,46.0,41.0,29.78,WNW,300,7.0,-999.0,84,-99.99,,,-99.99,,2013-03-12 00:53:00,
2013-03-11 21:02:00,45.0,40.0,29.78,West,275,10.0,-999.0,83,-99.99,,,-99.99,,2013-03-12 01:02:00,
2013-03-11 21:22:00,45.0,40.0,29.80,WNW,285,10.0,-999.0,81,-99.99,,,-99.99,,2013-03-12 01:22:00,
2013-03-11 21:33:00,44.0,39.0,29.80,WNW,295,9.0,-999.0,82,-99.99,,,-99.99,,2013-03-12 01:33:00,
2013-03-11 21:42:00,44.0,39.0,29.80,WNW,295,9.0,-999.0,82,-99.99,,,-99.99,,2013-03-12 01:42:00,
2013-03-11 21:52:00,44.0,38.0,29.81,NW,319,8.0,-999.0,79,-99.99,,,-99.99,,2013-03-12 01:52:00,
2013-03-11 22:02:00,43.0,37.0,29.82,WNW,289,7.0,-999.0,79,-99.99,,,-99.99,,2013-03-12 02:02:00,
2013-03-11 22:12:00,43.0,37.0,29.82,WNW,289,7.0,-999.0,79,-99.99,,,-99.99,,2013-03-12 02:12:00,
2013-03-11 22:22:00,43.0,37.0,29.82,WNW,282,6.0,-999.0,78,-99.99,,,-99.99,,2013-03-12 02:22:00,
2013-03-11 22:32:00,43.0,36.0,29.83,WNW,288,4.0,-999.0,77,-99.99,,,-99.99,,2013-03-12 02:32:00,
2013-03-11 22:42:00,43.0,36.0,29.83,WNW,288,4.0,-999.0,77,-99.99,,,-99.99,,2013-03-12 02:42:00,
2013-03-11 22:52:00,43.0,36.0,29.84,WSW,246,5.0,-999.0,76,-99.99,,,-99.99,,2013-03-12 02:52:00,
2013-03-11 23:02:00,43.0,36.0,29.85,WNW,283,6.0,-999.0,77,-99.99,,,-99.99,,2013-03-12 03:02:00,
2013-03-11 23:12:00,43.0,36.0,29.85,WNW,283,6.0,-999.0,77,-99.99,,,-99.99,,2013-03-12 03:12:00,
2013-03-11 23:22:00,42.0,35.0,29.85,WNW,289,6.0,-999.0,77,-99.99,,,-99.99,,2013-03-12 03:22:00,
2013-03-11 23:32:00,42.0,35.0,29.85,WNW,302,8.0,-999.0,77,-99.99,,,-99.99,,2013-03-12 03:32:00,
2013-03-11 23:42:00,42.0,35.0,29.85,WNW,302,8.0,-999.0,77,-99.99,,,-99.99,,2013-03-12 03:42:00,
2013-03-11 23:52:00,42.0,36.0,29.85,WNW,288,7.0,-999.0,78,-99.99,,,-99.99,,2013-03-12 03:52:00,